[[{"header":{"parameterUnit":"m.s-1","parameterCategory":1,"la1":30.2991,"la2":30.254,"lo1":-89.0895,"lo2":-89.0444,"dy":0.0017,"dx":0.0017,"nx":28,"ny":28,"refTime":"2023-06-19T21:00:00:Z","depth":0,"parameterNumber":2,"parameterNumberName":"U-component_of_WINDS"},"data":[0,0,0,0,0,0,0,0,0,0,0,0,0,0,0,0,0,0,0,0,0,0,0,0,0,0,0,0,0,0,0,0,0,0,0,0,0,0,0,0,0,0,0,0,0,0,0,0,0,0,0,0,0,0,0,0,0,0,4.652,4.6518,0,4.6358,4.6356,4.6354,4.6236,4.6235,4.6234,4.6234,4.6061,4.6058,4.6054,0,0,0,0,0,0,0,0,0,0,0,0,0,4.6725,4.6721,4.652,4.6518,4.6516,4.6358,4.6356,4.6354,4.6237,4.6235,4.6234,4.6233,4.6062,4.6058,4.6054,0,0,0,0,0,0,0,0,0,0,0,0,0,4.6606,4.672,4.652,4.6439,4.643,4.6359,4.6356,4.6353,4.6237,4.6235,4.6234,4.6233,4.6064,4.6059,4.6053,4.6048,0,0,4.6036,4.6034,0,0,0,0,0,0,0,0,4.6613,4.6599,4.6453,4.6444,4.6434,4.6316,4.6365,4.6251,4.6237,4.631,4.6234,4.6232,4.6147,4.6134,4.6107,4.604,4.6033,4.6036,4.6032,4.603,4.6028,0,0,0,0,0,0,0,4.6622,4.6605,4.6455,4.6451,4.6439,4.6409,4.6391,4.6343,4.6238,4.6303,4.6294,4.6277,4.6141,4.6113,4.6102,4.603,4.6036,4.6031,4.6028,4.6025,4.5955,4.5957,0,0,0,0,0,0,4.6643,4.6613,4.6461,4.6451,4.6522,4.6407,4.6386,4.6355,4.6238,4.6219,4.6279,4.6272,4.6123,4.6109,4.6096,4.6084,4.603,4.6025,4.6022,4.5954,4.5956,4.5957,0,0,0,0,0,0,4.6648,4.6631,4.6467,4.6529,4.6506,4.6405,4.6371,4.6353,4.6324,4.622,4.62,4.6269,4.6121,4.6103,4.6062,4.6077,4.6022,4.6017,4.5952,4.5954,4.5956,4.6061,0,0,0,0,0,0,4.6654,4.6633,4.6631,4.653,4.6504,4.6438,4.6372,4.6351,4.6316,4.6306,4.6205,4.6187,4.6118,4.6071,4.6057,4.6068,4.6013,4.595,4.5953,4.5956,4.6056,4.6067,4.6076,0,0,0,0,0,4.6662,4.6664,4.6631,4.6613,4.6499,4.6439,4.6423,4.6346,4.6317,4.6314,4.6248,4.619,4.6078,4.6068,4.6051,4.6061,4.5949,4.5952,4.5955,4.6051,4.6065,4.6076,0,0,0,0,0,0,4.6765,4.6649,4.6611,4.6581,4.6522,4.6419,4.6412,4.6362,4.6307,4.6299,4.6204,4.6182,4.6152,4.6102,4.6093,4.6052,4.6006,4.6007,4.6085,4.6097,4.6107,4.6119,4.6008,0,0,0,0,0,4.6786,4.6748,4.6648,4.6631,4.6604,4.6514,4.6485,4.6431,4.6364,4.6337,4.6267,4.6203,4.6154,4.6122,4.6071,4.6049,4.6026,4.6048,4.6058,4.6066,4.6067,4.6055,4.6063,4.5968,4.5968,4.5968,0,0,4.6825,4.6757,4.6738,4.6651,4.6598,4.6561,4.6493,4.6455,4.6427,4.633,4.6289,4.6236,4.6158,4.6128,4.6111,4.6085,4.6089,4.607,4.6078,4.6074,4.6059,4.6068,4.6076,4.597,4.597,4.5969,0,0,4.6878,4.6823,4.6804,4.6754,4.6677,4.6617,4.6614,4.652,4.6483,4.644,4.6368,4.6332,4.6248,4.6197,4.6159,4.62,4.6145,4.6185,4.6237,4.6226,4.6233,4.6239,4.6255,4.6262,4.6187,4.6187,4.6187,0,4.6936,4.6879,4.68,4.6769,4.6733,4.6649,4.663,4.6584,4.6492,4.6469,4.6443,4.6339,4.628,4.6238,4.6249,4.6221,4.6213,4.6195,4.6239,4.6244,4.6249,4.6263,4.6269,4.6192,4.6192,4.6191,4.6191,0,4.6955,4.6917,4.6911,4.683,4.6793,4.6768,4.6686,4.6658,4.6609,4.6553,4.6512,4.644,4.6374,4.636,4.631,4.6312,4.6299,4.6257,4.6209,4.6265,4.6276,4.6281,4.62,4.6198,4.6196,4.6195,0,0,4.7065,4.6945,4.6944,4.6907,4.6818,4.6786,4.6758,4.6697,4.6676,4.6617,4.6591,4.6525,4.6487,4.6446,4.6389,4.638,4.6419,4.6339,4.6336,4.6358,4.6419,4.6451,4.6459,4.6384,4.6384,4.6385,4.6426,0,4.7105,4.7052,4.6983,4.6953,4.6918,4.684,4.6816,4.6758,4.6706,4.6668,4.661,4.6565,4.6518,4.6493,4.648,4.6417,4.643,4.6413,4.6358,4.6358,4.6381,4.6464,4.6497,4.6539,4.643,4.6431,4.6431,0,4.7143,4.7093,4.7061,4.6979,4.6961,4.6941,4.6881,4.6846,4.678,4.6743,4.67,4.6641,4.6608,4.6567,4.652,4.6511,4.6484,4.6451,4.645,4.6442,4.6397,4.6458,4.655,4.6557,4.6437,4.6437,4.6436,0,4.7228,4.7152,4.7124,4.7095,4.6998,4.6986,4.6944,4.6877,4.6846,4.6794,4.6773,4.6716,4.6685,4.6643,4.6571,4.6547,4.6533,4.6485,4.6501,4.6503,4.65,4.6501,4.659,4.6484,4.6484,4.6484,4.6484,0,4.728,4.7263,4.7162,4.7144,4.7125,4.7046,4.7028,4.6979,4.6922,4.6893,4.6821,4.6796,4.6702,4.6666,4.6609,4.6581,4.6567,4.6536,4.6521,4.6542,4.6547,4.6523,4.6519,4.6485,4.6485,4.6485,4.6485,0,4.737,4.7302,4.7266,4.7179,4.7157,4.7147,4.7071,4.7052,4.6998,4.6963,4.6951,4.6865,4.682,4.6744,4.6675,4.6637,4.662,4.6594,4.6643,4.6634,4.6655,4.6654,4.6731,4.6738,4.6629,4.663,4.6631,0,4.7408,4.7394,4.7307,4.7285,4.7247,4.7211,4.7181,4.7104,4.7075,4.7002,4.6991,4.6941,4.6896,4.6827,4.6758,4.6706,4.6679,4.671,4.667,4.6694,4.6681,4.6683,4.6682,4.6719,4.672,4.6721,4.6723,0,4.7482,4.745,4.7409,4.7359,4.7325,4.7281,4.7232,4.7218,4.713,4.7101,4.7056,4.7022,4.6954,4.6905,4.6845,4.6801,4.6748,4.6736,4.6737,4.6759,4.6788,4.6774,4.6668,4.6734,4.6733,4.6732,4.6731,4.6731,4.7546,4.7532,4.7471,4.7429,4.7386,4.7344,4.7323,4.7269,4.723,4.7171,4.7128,4.7086,4.7023,4.6937,4.6897,4.6863,4.6838,4.6839,4.684,4.6841,4.685,4.6795,4.6851,4.685,4.685,4.685,4.6849,0,4.7618,4.7576,4.7539,4.7476,4.7444,4.7401,4.7346,4.7322,4.7287,4.7234,4.7194,4.7143,4.7097,4.7027,4.6975,4.6961,4.6936,4.695,4.695,4.6941,4.6874,4.6879,4.6972,4.6972,4.6972,4.6972,4.6972,4.6972,4.7651,4.7626,4.7588,4.7541,4.7498,4.7459,4.7432,4.7393,4.7351,4.7299,4.7261,4.7217,4.7158,4.7102,4.7058,4.7039,4.7023,4.7046,4.7019,4.6957,4.6946,4.6935,4.6939,4.7043,4.7043,4.7088,4.7089,4.7089]},{"header":{"parameterUnit":"m.s-1","parameterCategory":1,"la1":30.2991,"la2":30.254,"lo1":-89.0895,"lo2":-89.0444,"dy":0.0017,"dx":0.0017,"nx":28,"ny":28,"refTime":"2023-06-19T21:00:00:Z","depth":0,"parameterNumber":3,"parameterNumberName":"V-component_of_WINDS"},"data":[0,0,0,0,0,0,0,0,0,0,0,0,0,0,0,0,0,0,0,0,0,0,0,0,0,0,0,0,0,0,0,0,0,0,0,0,0,0,0,0,0,0,0,0,0,0,0,0,0,0,0,0,0,0,0,0,0,0,4.8686,4.869,0,4.9015,4.9019,4.9023,4.9093,4.909,4.9088,4.9085,4.9432,4.9444,4.9455,0,0,0,0,0,0,0,0,0,0,0,0,0,4.8127,4.8137,4.8686,4.869,4.8694,4.9015,4.9019,4.9024,4.9093,4.909,4.9087,4.9084,4.9429,4.9442,4.9456,0,0,0,0,0,0,0,0,0,0,0,0,0,4.8405,4.814,4.8685,4.8767,4.8778,4.9014,4.9019,4.9025,4.9094,4.909,4.9086,4.9083,4.9424,4.9441,4.9458,4.9639,0,0,4.9511,4.9518,0,0,0,0,0,0,0,0,4.8389,4.8425,4.8751,4.8762,4.8774,4.9009,4.895,4.9231,4.9094,4.8974,4.9085,4.9081,4.9295,4.9323,4.9393,4.9655,4.967,4.9512,4.9523,4.953,4.9535,0,0,0,0,0,0,0,4.837,4.8412,4.8817,4.8756,4.877,4.8791,4.8826,4.9003,4.9152,4.8984,4.899,4.9027,4.9301,4.9376,4.9402,4.9675,4.9512,4.9527,4.9538,4.9545,5.0105,5.0109,0,0,0,0,0,0,4.8335,4.8395,4.8806,4.8826,4.8568,4.8804,4.8843,4.8937,4.915,4.9178,4.903,4.9029,4.9348,4.9381,4.9414,4.9642,4.953,4.9546,4.9556,5.0101,5.0106,5.0111,0,0,0,0,0,0,4.8322,4.8371,4.8793,4.8612,4.8668,4.8817,4.8922,4.8946,4.9021,4.9184,4.9212,4.9079,4.9347,4.939,4.9582,4.9655,4.9554,4.957,5.0095,5.0102,5.0108,5.0096,0,0,0,0,0,0,4.8306,4.8366,4.8433,4.8613,4.8677,4.8952,4.8927,4.8955,4.905,4.9052,4.9238,4.9265,4.9347,4.9556,4.9599,4.9677,4.9583,5.0089,5.0098,5.0106,5.0091,5.0102,5.0111,0,0,0,0,0,4.8286,4.8419,4.8436,4.8486,4.8764,4.8956,4.8993,4.9082,4.9055,4.9126,4.9231,4.9259,4.9639,4.9575,4.9625,4.9708,5.0085,5.0096,5.0106,5.0087,5.01,5.0111,0,0,0,0,0,0,4.8247,4.8444,4.8466,4.866,4.879,4.8967,4.906,4.9093,4.9236,4.9232,4.9339,4.9381,4.9567,4.9657,4.9582,4.9896,4.9861,4.9882,4.983,4.9844,4.9854,4.9829,4.9598,0,0,0,0,0,4.826,4.8396,4.8562,4.8718,4.8782,4.8909,4.8996,4.9053,4.9194,4.925,4.937,4.9508,4.9659,4.9756,4.9904,5.0104,5.0147,5.0186,5.0196,5.0203,5.0221,5.0336,5.0355,5.0144,5.0144,5.0144,0,0,4.8291,4.8415,4.8495,4.8714,4.8821,4.8963,4.8956,4.9106,4.9213,4.9275,4.9463,4.9555,4.9717,4.9914,5.0007,4.9995,5.0288,5.0216,5.0221,5.0235,5.0348,5.0368,5.0386,5.0151,5.015,5.0149,0,0,4.8419,4.8525,4.8667,4.8775,4.8937,4.9021,4.9055,4.9227,4.929,4.948,4.9529,4.966,4.9917,5.0031,5.0122,5.0294,5.0326,5.0339,5.0393,5.0503,5.052,5.0535,5.0599,5.062,5.0355,5.0355,5.0355,0,4.8437,4.865,4.8737,4.8885,4.8981,4.9039,4.9186,4.9288,4.9491,4.9557,4.9539,4.9864,4.9977,5.0202,5.0244,5.0315,5.036,5.0319,5.051,5.0526,5.0542,5.0604,5.0627,5.0356,5.0356,5.0356,5.0356,0,4.8665,4.8812,4.8908,4.9099,4.9206,4.9353,4.9466,4.9564,4.9611,4.9698,4.9893,5.003,5.0207,5.0265,5.0314,5.0499,5.0486,5.0487,5.0456,5.0561,5.0621,5.0646,5.0357,5.0357,5.0356,5.0356,0,0,4.8779,4.9016,4.905,4.9139,4.9322,4.9439,4.9589,4.9759,4.9843,4.9981,5.0113,5.0328,5.0331,5.0435,5.0497,5.0594,5.0724,5.0585,5.059,5.0608,5.0939,5.0938,5.0964,5.0745,5.075,5.0754,5.0927,0,4.8931,4.9198,4.9281,4.9506,4.9645,4.9702,4.9834,4.9963,5.0048,5.0181,5.0276,5.0428,5.0419,5.0482,5.058,5.0687,5.0792,5.0675,5.0873,5.0878,5.0832,5.0995,5.0995,5.1151,5.095,5.0954,5.0957,0,4.9144,4.9283,4.952,4.9687,4.9748,4.9864,5.0028,5.0153,5.0301,5.0356,5.0472,5.0526,5.069,5.0647,5.0875,5.0794,5.0879,5.0944,5.0953,5.0977,5.0926,5.1026,5.1203,5.1227,5.0995,5.0992,5.0989,0,4.9206,4.9452,4.9627,4.97,4.9898,4.9979,5.0066,5.021,5.0308,5.0452,5.0517,5.0679,5.0768,5.0894,5.0993,5.0952,5.1214,5.1178,5.1268,5.1266,5.1322,5.1318,5.1518,5.1373,5.1373,5.1372,5.1372,0,4.9368,4.9511,4.9657,4.9765,4.9928,5.0024,5.0185,5.0276,5.0404,5.0533,5.0593,5.0714,5.0835,5.0973,5.1051,5.123,5.127,5.1322,5.1342,5.1318,5.1312,5.1378,5.137,5.1378,5.1377,5.1376,5.1375,0,4.9465,4.9568,4.9762,4.9933,4.9979,5.0093,5.0241,5.035,5.0437,5.0599,5.0643,5.0782,5.0947,5.1056,5.1269,5.1321,5.1517,5.1533,5.1466,5.1476,5.156,5.1552,5.1812,5.1852,5.1677,5.1678,5.168,0,4.9563,4.9674,4.9856,4.9945,5.0032,5.0174,5.0274,5.0373,5.0475,5.0652,5.074,5.0908,5.1049,5.1311,5.1433,5.1596,5.1618,5.1698,5.1643,5.1617,5.1623,5.1616,5.1629,5.1707,5.1708,5.171,5.171,0,4.9726,4.9771,4.9909,5.0067,5.0182,5.0312,5.0442,5.0512,5.0635,5.0746,5.0914,5.1022,5.1238,5.1406,5.158,5.1674,5.1715,5.1726,5.1756,5.1735,5.1692,5.1719,5.1493,5.1721,5.172,5.1719,5.1718,5.1718,4.9829,4.9931,5.0075,5.0228,5.0336,5.0456,5.0566,5.0666,5.0807,5.0988,5.1039,5.1215,5.1363,5.1601,5.1697,5.1839,5.1832,5.1874,5.1886,5.1895,5.1897,5.1667,5.1871,5.1871,5.1871,5.1871,5.1871,0,4.9997,5.0092,5.0232,5.041,5.0532,5.0554,5.07,5.0801,5.0954,5.1087,5.1222,5.1417,5.158,5.1714,5.1884,5.1972,5.1995,5.2013,5.201,5.2031,5.1893,5.1851,5.1992,5.1992,5.1992,5.1992,5.1992,5.1992,5.0099,5.0274,5.0337,5.0567,5.0663,5.0833,5.0914,5.1027,5.1134,5.1347,5.1482,5.1566,5.1702,5.1881,5.2033,5.2069,5.213,5.2145,5.2185,5.2054,5.2041,5.2028,5.1989,5.2157,5.2157,5.2312,5.2314,5.2315]}]]